Time,TemperatureF,DewpointF,PressureIn,WindDirection,WindDirectionDegrees,WindSpeedMPH,WindSpeedGustMPH,Humidity,HourlyPrecipIn,Conditions,Clouds,dailyrainin,SoftwareType,DateUTC
2013-03-03 00:00:00,21.3,17.8,30.23,NW,309,2.0,2.0,86,0.00,,,0.00,Wunderground v.1.15,2013-03-03 06:00:00,
2013-03-03 00:06:00,21.3,17.8,30.23,NW,306,2.0,2.0,86,0.00,,,0.00,Wunderground v.1.15,2013-03-03 06:06:00,
2013-03-03 00:12:00,21.3,17.8,30.23,NW,310,2.0,2.0,86,0.00,,,0.00,Wunderground v.1.15,2013-03-03 06:12:00,
2013-03-03 00:17:00,21.2,17.7,30.23,NW,306,1.0,3.0,86,0.00,,,0.00,Wunderground v.1.15,2013-03-03 06:17:00,
2013-03-03 00:23:00,21.1,17.6,30.23,NW,305,1.0,1.0,86,0.00,,,0.00,Wunderground v.1.15,2013-03-03 06:23:00,
2013-03-03 00:29:00,20.9,17.4,30.22,NW,306,1.0,2.0,86,0.00,,,0.00,Wunderground v.1.15,2013-03-03 06:29:00,
2013-03-03 00:34:00,20.8,17.3,30.22,NW,306,1.0,3.0,86,0.00,,,0.00,Wunderground v.1.15,2013-03-03 06:34:00,
2013-03-03 00:40:00,20.8,17.3,30.22,NW,307,2.0,3.0,86,0.00,,,0.00,Wunderground v.1.15,2013-03-03 06:40:00,
2013-03-03 00:46:00,20.8,17.3,30.23,NW,307,3.0,3.0,86,0.00,,,0.00,Wunderground v.1.15,2013-03-03 06:46:00,
2013-03-03 00:51:00,20.8,17.0,30.23,NW,308,3.0,4.0,85,0.00,,,0.00,Wunderground v.1.15,2013-03-03 06:51:00,
2013-03-03 00:57:00,20.8,17.0,30.23,NW,304,3.0,4.0,85,0.00,,,0.00,Wunderground v.1.15,2013-03-03 06:57:00,
2013-03-03 01:03:00,20.9,17.1,30.23,NW,308,2.0,3.0,85,0.00,,,0.00,Wunderground v.1.15,2013-03-03 07:03:00,
2013-03-03 01:09:00,20.9,17.1,30.23,WNW,301,2.0,4.0,85,0.00,,,0.00,Wunderground v.1.15,2013-03-03 07:09:00,
2013-03-03 01:15:00,20.9,16.8,30.23,WNW,302,2.0,2.0,84,0.00,,,0.00,Wunderground v.1.15,2013-03-03 07:15:00,
2013-03-03 01:20:00,20.9,16.8,30.23,NW,307,2.0,2.0,84,0.00,,,0.00,Wunderground v.1.15,2013-03-03 07:20:00,
2013-03-03 01:26:00,20.9,16.8,30.22,NW,304,1.0,2.0,84,0.00,,,0.00,Wunderground v.1.15,2013-03-03 07:26:00,
2013-03-03 01:32:00,20.7,16.6,30.22,NW,306,1.0,2.0,84,0.00,,,0.00,Wunderground v.1.15,2013-03-03 07:32:00,
2013-03-03 01:38:00,20.7,16.6,30.22,NW,307,1.0,2.0,84,0.00,,,0.00,Wunderground v.1.15,2013-03-03 07:38:00,
2013-03-03 01:44:00,20.6,16.5,30.22,NW,305,1.0,2.0,84,0.00,,,0.00,Wunderground v.1.15,2013-03-03 07:44:00,
2013-03-03 01:49:00,20.6,16.8,30.22,NW,306,1.0,3.0,85,0.00,,,0.00,Wunderground v.1.15,2013-03-03 07:49:00,
2013-03-03 01:55:00,20.6,16.8,30.22,WNW,302,1.0,2.0,85,0.00,,,0.00,Wunderground v.1.15,2013-03-03 07:55:00,
2013-03-03 02:00:00,20.5,16.7,30.22,NW,306,1.0,1.0,85,0.00,,,0.00,Wunderground v.1.15,2013-03-03 08:00:00,
2013-03-03 02:06:00,20.3,16.5,30.22,NW,307,1.0,1.0,85,0.00,,,0.00,Wunderground v.1.15,2013-03-03 08:06:00,
2013-03-03 02:12:00,20.2,16.4,30.22,NW,304,1.0,2.0,85,0.00,,,0.00,Wunderground v.1.15,2013-03-03 08:12:00,
2013-03-03 02:18:00,20.2,16.7,30.21,NW,308,1.0,2.0,86,0.00,,,0.00,Wunderground v.1.15,2013-03-03 08:18:00,
2013-03-03 02:23:00,20.1,16.6,30.21,NW,308,1.0,2.0,86,0.00,,,0.00,Wunderground v.1.15,2013-03-03 08:23:00,
2013-03-03 02:29:00,20.0,16.5,30.21,NW,310,2.0,3.0,86,0.00,,,0.00,Wunderground v.1.15,2013-03-03 08:29:00,
2013-03-03 02:35:00,19.8,16.6,30.20,NW,305,3.0,4.0,87,0.00,,,0.00,Wunderground v.1.15,2013-03-03 08:35:00,
2013-03-03 02:41:00,19.8,16.3,30.20,NW,307,3.0,3.0,86,0.00,,,0.00,Wunderground v.1.15,2013-03-03 08:41:00,
2013-03-03 02:47:00,19.7,16.2,30.20,SE,141,3.0,3.0,86,0.00,,,0.00,Wunderground v.1.15,2013-03-03 08:47:00,
2013-03-03 02:53:00,19.7,16.2,30.20,NW,310,3.0,5.0,86,0.00,,,0.00,Wunderground v.1.15,2013-03-03 08:53:00,
2013-03-03 02:58:00,19.6,16.4,30.20,NW,306,3.0,5.0,87,0.00,,,0.00,Wunderground v.1.15,2013-03-03 08:58:00,
2013-03-03 03:04:00,19.6,16.4,30.20,NW,307,2.0,3.0,87,0.00,,,0.00,Wunderground v.1.15,2013-03-03 09:04:00,
2013-03-03 03:10:00,19.6,16.4,30.20,NW,306,3.0,3.0,87,0.00,,,0.00,Wunderground v.1.15,2013-03-03 09:10:00,
2013-03-03 03:16:00,19.5,16.3,30.19,NW,307,3.0,3.0,87,0.00,,,0.00,Wunderground v.1.15,2013-03-03 09:16:00,
2013-03-03 03:22:00,19.4,16.2,30.19,NW,308,3.0,4.0,87,0.00,,,0.00,Wunderground v.1.15,2013-03-03 09:22:00,
2013-03-03 03:28:00,19.3,16.1,30.19,NW,306,3.0,4.0,87,0.00,,,0.00,Wunderground v.1.15,2013-03-03 09:28:00,
2013-03-03 03:34:00,19.1,15.9,30.19,NW,307,3.0,3.0,87,0.00,,,0.00,Wunderground v.1.15,2013-03-03 09:34:00,
2013-03-03 03:39:00,19.1,15.9,30.19,NW,306,3.0,4.0,87,0.00,,,0.00,Wunderground v.1.15,2013-03-03 09:39:00,
2013-03-03 03:45:00,19.0,15.8,30.19,NW,309,3.0,3.0,87,0.00,,,0.00,Wunderground v.1.15,2013-03-03 09:45:00,
2013-03-03 03:51:00,19.1,16.1,30.19,NW,306,3.0,3.0,88,0.00,,,0.00,Wunderground v.1.15,2013-03-03 09:51:00,
2013-03-03 03:56:00,19.0,16.0,30.19,NW,305,3.0,4.0,88,0.00,,,0.00,Wunderground v.1.15,2013-03-03 09:56:00,
2013-03-03 04:02:00,19.1,15.9,30.19,NW,307,3.0,3.0,87,0.00,,,0.00,Wunderground v.1.15,2013-03-03 10:02:00,
2013-03-03 04:08:00,19.0,15.8,30.19,NW,306,3.0,4.0,87,0.00,,,0.00,Wunderground v.1.15,2013-03-03 10:08:00,
2013-03-03 04:14:00,19.0,16.0,30.19,NW,307,3.0,4.0,88,0.00,,,0.00,Wunderground v.1.15,2013-03-03 10:14:00,
2013-03-03 04:20:00,19.0,16.0,30.19,WNW,302,3.0,3.0,88,0.00,,,0.00,Wunderground v.1.15,2013-03-03 10:20:00,
2013-03-03 04:26:00,18.9,15.9,30.19,WNW,301,3.0,4.0,88,0.00,,,0.00,Wunderground v.1.15,2013-03-03 10:26:00,
2013-03-03 04:32:00,18.8,15.8,30.19,NW,310,3.0,4.0,88,0.00,,,0.00,Wunderground v.1.15,2013-03-03 10:32:00,
2013-03-03 04:38:00,18.7,15.7,30.19,NW,305,3.0,4.0,88,0.00,,,0.00,Wunderground v.1.15,2013-03-03 10:38:00,
2013-03-03 04:44:00,18.6,15.6,30.19,NW,305,4.0,4.0,88,0.00,,,0.00,Wunderground v.1.15,2013-03-03 10:44:00,
2013-03-03 04:50:00,18.6,15.6,30.19,NW,306,4.0,4.0,88,0.00,,,0.00,Wunderground v.1.15,2013-03-03 10:50:00,
2013-03-03 04:55:00,18.5,15.3,30.19,NW,305,3.0,4.0,87,0.00,,,0.00,Wunderground v.1.15,2013-03-03 10:55:00,
2013-03-03 05:00:00,18.4,15.2,30.19,NW,305,4.0,4.0,87,0.00,,,0.00,Wunderground v.1.15,2013-03-03 11:00:00,
2013-03-03 05:06:00,18.3,15.1,30.20,NW,306,4.0,4.0,87,0.00,,,0.00,Wunderground v.1.15,2013-03-03 11:06:00,
2013-03-03 05:11:00,18.2,15.0,30.19,NW,306,3.0,4.0,87,0.00,,,0.00,Wunderground v.1.15,2013-03-03 11:11:00,
2013-03-03 05:17:00,18.2,15.0,30.20,NW,306,3.0,4.0,87,0.00,,,0.00,Wunderground v.1.15,2013-03-03 11:17:00,
2013-03-03 05:23:00,18.1,14.9,30.20,NW,306,3.0,4.0,87,0.00,,,0.00,Wunderground v.1.15,2013-03-03 11:23:00,
2013-03-03 05:29:00,18.0,14.8,30.20,NW,306,3.0,4.0,87,0.00,,,0.00,Wunderground v.1.15,2013-03-03 11:29:00,
2013-03-03 05:35:00,17.9,14.7,30.20,NW,306,3.0,3.0,87,0.00,,,0.00,Wunderground v.1.15,2013-03-03 11:35:00,
2013-03-03 05:41:00,17.9,14.7,30.20,NW,306,3.0,4.0,87,0.00,,,0.00,Wunderground v.1.15,2013-03-03 11:41:00,
2013-03-03 05:47:00,17.9,14.9,30.20,NW,304,2.0,4.0,88,0.00,,,0.00,Wunderground v.1.15,2013-03-03 11:47:00,
2013-03-03 05:52:00,17.8,14.8,30.20,NW,305,2.0,3.0,88,0.00,,,0.00,Wunderground v.1.15,2013-03-03 11:52:00,
2013-03-03 05:58:00,17.7,14.8,30.20,NW,306,2.0,3.0,88,0.00,,,0.00,Wunderground v.1.15,2013-03-03 11:58:00,
2013-03-03 06:04:00,17.5,14.6,30.20,NW,307,2.0,2.0,88,0.00,,,0.00,Wunderground v.1.15,2013-03-03 12:04:00,
2013-03-03 06:10:00,17.4,14.5,30.20,NW,307,2.0,3.0,88,0.00,,,0.00,Wunderground v.1.15,2013-03-03 12:10:00,
2013-03-03 06:16:00,17.2,14.3,30.20,NW,306,3.0,3.0,88,0.00,,,0.00,Wunderground v.1.15,2013-03-03 12:16:00,
2013-03-03 06:22:00,17.1,14.2,30.20,NW,306,3.0,3.0,88,0.00,,,0.00,Wunderground v.1.15,2013-03-03 12:22:00,
2013-03-03 06:28:00,17.1,14.4,30.20,NW,310,3.0,3.0,89,0.00,,,0.00,Wunderground v.1.15,2013-03-03 12:28:00,
2013-03-03 06:33:00,17.1,14.4,30.20,NW,309,2.0,3.0,89,0.00,,,0.00,Wunderground v.1.15,2013-03-03 12:33:00,
2013-03-03 06:39:00,17.2,14.5,30.21,NW,310,2.0,3.0,89,0.00,,,0.00,Wunderground v.1.15,2013-03-03 12:39:00,
2013-03-03 06:45:00,17.3,14.6,30.20,NW,306,2.0,2.0,89,0.00,,,0.00,Wunderground v.1.15,2013-03-03 12:45:00,
2013-03-03 06:51:00,17.3,14.6,30.20,NW,305,0.0,1.0,89,0.00,,,0.00,Wunderground v.1.15,2013-03-03 12:51:00,
2013-03-03 06:57:00,17.6,15.2,30.20,NW,306,0.0,1.0,90,0.00,,,0.00,Wunderground v.1.15,2013-03-03 12:57:00,
2013-03-03 07:03:00,18.4,15.7,30.20,NW,306,0.0,0.0,89,0.00,,,0.00,Wunderground v.1.15,2013-03-03 13:03:00,
2013-03-03 07:09:00,18.8,15.6,30.20,NW,306,0.0,0.0,87,0.00,,,0.00,Wunderground v.1.15,2013-03-03 13:09:00,
2013-03-03 07:14:00,19.0,15.8,30.21,NW,308,0.0,0.0,87,0.00,,,0.00,Wunderground v.1.15,2013-03-03 13:14:00,
2013-03-03 07:20:00,19.1,15.6,30.21,NW,307,0.0,0.0,86,0.00,,,0.00,Wunderground v.1.15,2013-03-03 13:20:00,
2013-03-03 07:26:00,19.4,15.9,30.21,NW,309,0.0,0.0,86,0.00,,,0.00,Wunderground v.1.15,2013-03-03 13:26:00,
2013-03-03 07:32:00,19.7,16.2,30.21,NW,307,0.0,1.0,86,0.00,,,0.00,Wunderground v.1.15,2013-03-03 13:32:00,
2013-03-03 07:38:00,20.2,16.7,30.21,NW,306,1.0,2.0,86,0.00,,,0.00,Wunderground v.1.15,2013-03-03 13:38:00,
2013-03-03 07:44:00,20.7,16.9,30.21,NW,306,1.0,3.0,85,0.00,,,0.00,Wunderground v.1.15,2013-03-03 13:44:00,
2013-03-03 07:50:00,21.2,17.4,30.21,NW,306,1.0,1.0,85,0.00,,,0.00,Wunderground v.1.15,2013-03-03 13:50:00,
2013-03-03 07:55:00,21.6,17.5,30.21,NW,306,1.0,1.0,84,0.00,,,0.00,Wunderground v.1.15,2013-03-03 13:55:00,
2013-03-03 08:00:00,22.0,17.6,30.20,NW,305,0.0,1.0,83,0.00,,,0.00,Wunderground v.1.15,2013-03-03 14:00:00,
2013-03-03 08:06:00,22.4,17.7,30.20,NW,304,1.0,2.0,82,0.00,,,0.00,Wunderground v.1.15,2013-03-03 14:06:00,
2013-03-03 08:11:00,22.5,17.8,30.20,NW,308,1.0,2.0,82,0.00,,,0.00,Wunderground v.1.15,2013-03-03 14:11:00,
2013-03-03 08:17:00,23.0,18.3,30.20,NW,304,0.0,2.0,82,0.00,,,0.00,Wunderground v.1.15,2013-03-03 14:17:00,
2013-03-03 08:23:00,23.6,18.6,30.20,NW,305,0.0,1.0,81,0.00,,,0.00,Wunderground v.1.15,2013-03-03 14:23:00,
2013-03-03 08:29:00,24.1,19.1,30.20,NW,306,0.0,1.0,81,0.00,,,0.00,Wunderground v.1.15,2013-03-03 14:29:00,
2013-03-03 08:34:00,24.6,19.3,30.21,NW,306,0.0,0.0,80,0.00,,,0.00,Wunderground v.1.15,2013-03-03 14:34:00,
2013-03-03 08:40:00,24.9,19.6,30.21,NW,308,0.0,0.0,80,0.00,,,0.00,Wunderground v.1.15,2013-03-03 14:40:00,
2013-03-03 08:46:00,25.3,19.4,30.20,NW,307,0.0,1.0,78,0.00,,,0.00,Wunderground v.1.15,2013-03-03 14:46:00,
2013-03-03 08:52:00,25.6,20.0,30.20,NW,306,1.0,3.0,79,0.00,,,0.00,Wunderground v.1.15,2013-03-03 14:52:00,
2013-03-03 08:58:00,25.6,19.7,30.20,NW,306,2.0,4.0,78,0.00,,,0.00,Wunderground v.1.15,2013-03-03 14:58:00,
2013-03-03 09:04:00,25.6,19.4,30.21,NW,306,3.0,3.0,77,0.00,,,0.00,Wunderground v.1.15,2013-03-03 15:04:00,
2013-03-03 09:09:00,25.8,19.9,30.21,WNW,299,3.0,4.0,78,0.00,,,0.00,Wunderground v.1.15,2013-03-03 15:09:00,
2013-03-03 09:15:00,26.1,20.8,30.21,West,263,3.0,4.0,80,0.00,,,0.00,Wunderground v.1.15,2013-03-03 15:15:00,
2013-03-03 09:21:00,26.6,20.7,30.21,WSW,248,3.0,3.0,78,0.00,,,0.00,Wunderground v.1.15,2013-03-03 15:21:00,
2013-03-03 09:27:00,26.7,20.1,30.20,WSW,241,3.0,6.0,76,0.00,,,0.00,Wunderground v.1.15,2013-03-03 15:27:00,
2013-03-03 09:32:00,26.8,20.2,30.20,WSW,239,4.0,5.0,76,0.00,,,0.00,Wunderground v.1.15,2013-03-03 15:32:00,
2013-03-03 09:38:00,27.2,20.3,30.21,WSW,241,3.0,6.0,75,0.00,,,0.00,Wunderground v.1.15,2013-03-03 15:38:00,
2013-03-03 09:44:00,27.4,20.5,30.21,WSW,237,3.0,5.0,75,0.00,,,0.00,Wunderground v.1.15,2013-03-03 15:44:00,
2013-03-03 09:50:00,27.6,19.8,30.21,WSW,237,4.0,5.0,72,0.00,,,0.00,Wunderground v.1.15,2013-03-03 15:50:00,
2013-03-03 09:55:00,27.9,20.0,30.21,WSW,238,4.0,5.0,72,0.00,,,0.00,Wunderground v.1.15,2013-03-03 15:55:00,
2013-03-03 10:00:00,27.8,19.6,30.21,WSW,242,4.0,5.0,71,0.00,,,0.00,Wunderground v.1.15,2013-03-03 16:00:00,
2013-03-03 10:06:00,27.8,19.3,30.20,SW,229,4.0,6.0,70,0.00,,,0.00,Wunderground v.1.15,2013-03-03 16:06:00,
2013-03-03 10:12:00,28.2,19.7,30.20,SW,229,4.0,6.0,70,0.00,,,0.00,Wunderground v.1.15,2013-03-03 16:12:00,
2013-03-03 10:18:00,28.5,19.6,30.20,WSW,245,5.0,6.0,69,0.00,,,0.00,Wunderground v.1.15,2013-03-03 16:18:00,
2013-03-03 10:23:00,29.0,19.8,30.20,SSW,210,3.0,4.0,68,0.00,,,0.00,Wunderground v.1.15,2013-03-03 16:23:00,
2013-03-03 10:29:00,29.0,19.8,30.20,SW,231,4.0,5.0,68,0.00,,,0.00,Wunderground v.1.15,2013-03-03 16:29:00,
2013-03-03 10:35:00,28.9,20.0,30.20,SW,229,4.0,6.0,69,0.00,,,0.00,Wunderground v.1.15,2013-03-03 16:35:00,
2013-03-03 10:41:00,29.6,20.3,30.20,SW,226,4.0,5.0,68,0.00,,,0.00,Wunderground v.1.15,2013-03-03 16:41:00,
2013-03-03 10:47:00,29.9,20.6,30.20,WSW,239,5.0,6.0,68,0.00,,,0.00,Wunderground v.1.15,2013-03-03 16:47:00,
2013-03-03 10:52:00,30.2,20.2,30.19,WSW,237,3.0,4.0,66,0.00,,,0.00,Wunderground v.1.15,2013-03-03 16:52:00,
2013-03-03 10:58:00,31.0,20.2,30.19,WSW,237,2.0,6.0,64,0.00,,,0.00,Wunderground v.1.15,2013-03-03 16:58:00,
2013-03-03 11:04:00,31.4,20.2,30.19,WSW,239,3.0,5.0,63,0.00,,,0.00,Wunderground v.1.15,2013-03-03 17:04:00,
2013-03-03 11:10:00,31.0,19.1,30.19,SW,217,3.0,3.0,61,0.00,,,0.00,Wunderground v.1.15,2013-03-03 17:10:00,
2013-03-03 11:16:00,30.8,18.9,30.18,SW,219,3.0,4.0,61,0.00,,,0.00,Wunderground v.1.15,2013-03-03 17:16:00,
2013-03-03 11:22:00,31.1,18.0,30.18,SW,219,2.0,4.0,58,0.00,,,0.00,Wunderground v.1.15,2013-03-03 17:22:00,
2013-03-03 11:28:00,31.9,18.8,30.18,SW,220,3.0,6.0,58,0.00,,,0.00,Wunderground v.1.15,2013-03-03 17:28:00,
2013-03-03 11:33:00,32.0,18.5,30.18,SW,226,3.0,5.0,57,0.00,,,0.00,Wunderground v.1.15,2013-03-03 17:33:00,
2013-03-03 11:39:00,32.2,19.5,30.18,WSW,252,3.0,5.0,59,0.00,,,0.00,Wunderground v.1.15,2013-03-03 17:39:00,
2013-03-03 11:45:00,32.4,19.3,30.17,WSW,251,3.0,4.0,58,0.00,,,0.00,Wunderground v.1.15,2013-03-03 17:45:00,
2013-03-03 11:51:00,33.0,19.4,30.18,WSW,238,3.0,5.0,57,0.00,,,0.00,Wunderground v.1.15,2013-03-03 17:51:00,
2013-03-03 11:56:00,33.5,19.0,30.17,WSW,239,3.0,5.0,55,0.00,,,0.00,Wunderground v.1.15,2013-03-03 17:56:00,
2013-03-03 12:02:00,33.6,17.8,30.17,West,269,3.0,6.0,52,0.00,,,0.00,Wunderground v.1.15,2013-03-03 18:02:00,
2013-03-03 12:08:00,33.7,18.8,30.17,SW,227,3.0,6.0,54,0.00,,,0.00,Wunderground v.1.15,2013-03-03 18:08:00,
2013-03-03 12:14:00,33.4,15.3,30.17,SW,228,4.0,5.0,47,0.00,,,0.00,Wunderground v.1.15,2013-03-03 18:14:00,
2013-03-03 12:20:00,33.5,16.4,30.16,SW,229,2.0,2.0,49,0.00,,,0.00,Wunderground v.1.15,2013-03-03 18:20:00,
2013-03-03 12:26:00,33.9,17.7,30.16,SW,229,2.0,5.0,51,0.00,,,0.00,Wunderground v.1.15,2013-03-03 18:26:00,
2013-03-03 12:32:00,34.1,17.4,30.16,SW,229,3.0,3.0,50,0.00,,,0.00,Wunderground v.1.15,2013-03-03 18:32:00,
2013-03-03 12:37:00,34.4,17.2,30.16,SW,227,2.0,3.0,49,0.00,,,0.00,Wunderground v.1.15,2013-03-03 18:37:00,
2013-03-03 12:43:00,34.8,17.6,30.16,SW,228,2.0,6.0,49,0.00,,,0.00,Wunderground v.1.15,2013-03-03 18:43:00,
2013-03-03 12:49:00,34.5,18.7,30.15,SW,229,2.0,6.0,52,0.00,,,0.00,Wunderground v.1.15,2013-03-03 18:49:00,
2013-03-03 12:55:00,34.4,18.6,30.15,SW,229,2.0,3.0,52,0.00,,,0.00,Wunderground v.1.15,2013-03-03 18:55:00,
2013-03-03 13:00:00,34.7,18.4,30.15,SW,229,2.0,2.0,51,0.00,,,0.00,Wunderground v.1.15,2013-03-03 19:00:00,
2013-03-03 13:05:00,34.9,19.5,30.15,WSW,253,3.0,7.0,53,0.00,,,0.00,Wunderground v.1.15,2013-03-03 19:05:00,
2013-03-03 13:11:00,34.5,20.4,30.14,West,275,4.0,4.0,56,0.00,,,0.00,Wunderground v.1.15,2013-03-03 19:11:00,
2013-03-03 13:17:00,34.9,19.0,30.14,West,271,2.0,4.0,52,0.00,,,0.00,Wunderground v.1.15,2013-03-03 19:17:00,
2013-03-03 13:23:00,35.1,21.4,30.14,West,275,2.0,5.0,57,0.00,,,0.00,Wunderground v.1.15,2013-03-03 19:23:00,
2013-03-03 13:29:00,35.0,19.6,30.14,West,273,3.0,5.0,53,0.00,,,0.00,Wunderground v.1.15,2013-03-03 19:29:00,
2013-03-03 13:35:00,34.7,18.9,30.14,West,275,3.0,5.0,52,0.00,,,0.00,Wunderground v.1.15,2013-03-03 19:35:00,
2013-03-03 13:41:00,34.6,20.1,30.14,West,275,3.0,5.0,55,0.00,,,0.00,Wunderground v.1.15,2013-03-03 19:41:00,
2013-03-03 13:46:00,34.6,19.6,30.14,West,277,3.0,5.0,54,0.00,,,0.00,Wunderground v.1.15,2013-03-03 19:46:00,
2013-03-03 13:52:00,34.7,20.2,30.14,West,276,2.0,3.0,55,0.00,,,0.00,Wunderground v.1.15,2013-03-03 19:52:00,
2013-03-03 13:58:00,34.8,19.8,30.14,West,278,2.0,4.0,54,0.00,,,0.00,Wunderground v.1.15,2013-03-03 19:58:00,
2013-03-03 14:03:00,34.9,20.4,30.13,West,278,2.0,4.0,55,0.00,,,0.00,Wunderground v.1.15,2013-03-03 20:03:00,
2013-03-03 14:09:00,35.1,21.0,30.13,West,274,2.0,4.0,56,0.00,,,0.00,Wunderground v.1.15,2013-03-03 20:09:00,
2013-03-03 14:15:00,35.1,21.0,30.13,NW,311,2.0,3.0,56,0.00,,,0.00,Wunderground v.1.15,2013-03-03 20:15:00,
2013-03-03 14:21:00,35.0,20.9,30.13,NW,317,2.0,4.0,56,0.00,,,0.00,Wunderground v.1.15,2013-03-03 20:21:00,
2013-03-03 14:27:00,34.8,20.3,30.13,NW,321,3.0,4.0,55,0.00,,,0.00,Wunderground v.1.15,2013-03-03 20:27:00,
2013-03-03 14:33:00,34.7,19.7,30.12,NW,317,2.0,3.0,54,0.00,,,0.00,Wunderground v.1.15,2013-03-03 20:33:00,
2013-03-03 14:38:00,34.6,19.2,30.12,NW,317,1.0,3.0,53,0.00,,,0.00,Wunderground v.1.15,2013-03-03 20:38:00,
2013-03-03 14:44:00,34.4,19.5,30.12,NW,316,1.0,1.0,54,0.00,,,0.00,Wunderground v.1.15,2013-03-03 20:44:00,
2013-03-03 14:50:00,34.6,19.6,30.12,NW,316,1.0,2.0,54,0.00,,,0.00,Wunderground v.1.15,2013-03-03 20:50:00,
2013-03-03 14:56:00,34.8,20.7,30.12,NW,317,1.0,3.0,56,0.00,,,0.00,Wunderground v.1.15,2013-03-03 20:56:00,
2013-03-03 15:02:00,34.7,21.0,30.12,NNW,331,2.0,5.0,57,0.00,,,0.00,Wunderground v.1.15,2013-03-03 21:02:00,
2013-03-03 15:08:00,34.7,20.6,30.12,NNW,342,3.0,5.0,56,0.00,,,0.00,Wunderground v.1.15,2013-03-03 21:08:00,
2013-03-03 15:14:00,34.6,20.5,30.11,NE,46,3.0,6.0,56,0.00,,,0.00,Wunderground v.1.15,2013-03-03 21:14:00,
2013-03-03 15:20:00,34.6,20.9,30.11,NE,44,3.0,5.0,57,0.00,,,0.00,Wunderground v.1.15,2013-03-03 21:20:00,
2013-03-03 15:26:00,34.5,21.6,30.11,NE,53,4.0,5.0,59,0.00,,,0.00,Wunderground v.1.15,2013-03-03 21:26:00,
2013-03-03 15:32:00,34.6,21.3,30.11,East,79,4.0,4.0,58,0.00,,,0.00,Wunderground v.1.15,2013-03-03 21:32:00,
2013-03-03 15:38:00,35.2,21.9,30.11,SE,141,3.0,5.0,58,0.00,,,0.00,Wunderground v.1.15,2013-03-03 21:38:00,
2013-03-03 15:44:00,35.6,22.7,30.10,ENE,76,2.0,4.0,59,0.00,,,0.00,Wunderground v.1.15,2013-03-03 21:44:00,
2013-03-03 15:50:00,35.2,21.9,30.10,NE,56,4.0,4.0,58,0.00,,,0.00,Wunderground v.1.15,2013-03-03 21:50:00,
2013-03-03 15:56:00,34.7,22.2,30.10,NE,55,4.0,5.0,60,0.00,,,0.00,Wunderground v.1.15,2013-03-03 21:56:00,
2013-03-03 16:02:00,34.6,21.7,30.10,NE,55,3.0,3.0,59,0.00,,,0.00,Wunderground v.1.15,2013-03-03 22:02:00,
2013-03-03 16:07:00,34.7,21.8,30.10,NE,56,3.0,5.0,59,0.00,,,0.00,Wunderground v.1.15,2013-03-03 22:07:00,
2013-03-03 16:13:00,35.0,20.4,30.10,NE,54,3.0,3.0,55,0.00,,,0.00,Wunderground v.1.15,2013-03-03 22:13:00,
2013-03-03 16:19:00,35.1,19.7,30.10,NE,56,2.0,4.0,53,0.00,,,0.00,Wunderground v.1.15,2013-03-03 22:19:00,
2013-03-03 16:25:00,35.0,19.1,30.10,East,98,3.0,5.0,52,0.00,,,0.00,Wunderground v.1.15,2013-03-03 22:25:00,
2013-03-03 16:30:00,34.9,19.9,30.09,SE,141,3.0,4.0,54,0.00,,,0.00,Wunderground v.1.15,2013-03-03 22:30:00,
2013-03-03 16:36:00,34.8,18.9,30.09,East,98,3.0,6.0,52,0.00,,,0.00,Wunderground v.1.15,2013-03-03 22:36:00,
2013-03-03 16:42:00,34.6,18.8,30.09,East,96,4.0,4.0,52,0.00,,,0.00,Wunderground v.1.15,2013-03-03 22:42:00,
2013-03-03 16:48:00,34.5,17.3,30.09,East,96,2.0,4.0,49,0.00,,,0.00,Wunderground v.1.15,2013-03-03 22:48:00,
2013-03-03 16:54:00,34.4,16.7,30.10,East,98,3.0,4.0,48,0.00,,,0.00,Wunderground v.1.15,2013-03-03 22:54:00,
2013-03-03 17:00:00,34.4,16.7,30.10,ESE,102,3.0,3.0,48,0.00,,,0.00,Wunderground v.1.15,2013-03-03 23:00:00,
2013-03-03 17:06:00,34.4,16.2,30.10,ESE,113,3.0,5.0,47,0.00,,,0.00,Wunderground v.1.15,2013-03-03 23:06:00,
2013-03-03 17:12:00,34.3,17.1,30.10,ESE,115,4.0,6.0,49,0.00,,,0.00,Wunderground v.1.15,2013-03-03 23:12:00,
2013-03-03 17:18:00,34.2,17.9,30.10,ESE,117,3.0,6.0,51,0.00,,,0.00,Wunderground v.1.15,2013-03-03 23:18:00,
2013-03-03 17:24:00,34.0,18.6,30.10,ESE,116,1.0,2.0,53,0.00,,,0.00,Wunderground v.1.15,2013-03-03 23:24:00,
2013-03-03 17:30:00,33.9,18.1,30.10,ESE,113,1.0,1.0,52,0.00,,,0.00,Wunderground v.1.15,2013-03-03 23:30:00,
2013-03-03 17:35:00,33.8,18.5,30.10,ESE,119,2.0,3.0,53,0.00,,,0.00,Wunderground v.1.15,2013-03-03 23:35:00,
2013-03-03 17:41:00,33.8,20.2,30.10,ESE,114,2.0,4.0,57,0.00,,,0.00,Wunderground v.1.15,2013-03-03 23:41:00,
2013-03-03 17:47:00,33.8,21.4,30.10,ESE,117,2.0,4.0,60,0.00,,,0.00,Wunderground v.1.15,2013-03-03 23:47:00,
2013-03-03 17:53:00,33.7,22.1,30.10,ESE,112,2.0,3.0,62,0.00,,,0.00,Wunderground v.1.15,2013-03-03 23:53:00,
2013-03-03 17:59:00,33.6,23.1,30.10,ESE,113,2.0,3.0,65,0.00,,,0.00,Wunderground v.1.15,2013-03-03 23:59:00,
2013-03-03 18:05:00,33.5,23.4,30.10,ESE,117,2.0,3.0,66,0.00,,,0.00,Wunderground v.1.15,2013-03-04 00:05:00,
2013-03-03 18:11:00,33.4,24.0,30.10,ESE,116,1.0,2.0,68,0.00,,,0.00,Wunderground v.1.15,2013-03-04 00:11:00,
2013-03-03 18:17:00,33.3,24.2,30.10,ESE,110,2.0,2.0,69,0.00,,,0.00,Wunderground v.1.15,2013-03-04 00:17:00,
2013-03-03 18:23:00,33.2,24.5,30.10,ESE,118,2.0,3.0,70,0.00,,,0.00,Wunderground v.1.15,2013-03-04 00:23:00,
2013-03-03 18:28:00,33.0,24.3,30.10,ESE,114,2.0,3.0,70,0.00,,,0.00,Wunderground v.1.15,2013-03-04 00:28:00,
2013-03-03 18:34:00,32.9,24.5,30.10,ESE,114,2.0,2.0,71,0.00,,,0.00,Wunderground v.1.15,2013-03-04 00:34:00,
2013-03-03 18:40:00,32.8,24.4,30.09,ESE,114,2.0,4.0,71,0.00,,,0.00,Wunderground v.1.15,2013-03-04 00:40:00,
2013-03-03 18:46:00,32.6,23.9,30.10,ESE,118,2.0,4.0,70,0.00,,,0.00,Wunderground v.1.15,2013-03-04 00:46:00,
2013-03-03 18:52:00,32.6,23.9,30.10,ESE,114,2.0,4.0,70,0.00,,,0.00,Wunderground v.1.15,2013-03-04 00:52:00,
2013-03-03 18:57:00,32.5,24.1,30.10,ESE,112,2.0,4.0,71,0.00,,,0.00,Wunderground v.1.15,2013-03-04 00:57:00,
2013-03-03 19:03:00,32.4,24.0,30.10,ESE,114,2.0,4.0,71,0.00,,,0.00,Wunderground v.1.15,2013-03-04 01:03:00,
2013-03-03 19:09:00,32.4,24.0,30.10,ESE,114,2.0,4.0,71,0.00,,,0.00,Wunderground v.1.15,2013-03-04 01:09:00,
2013-03-03 19:15:00,32.3,23.6,30.10,ESE,117,2.0,3.0,70,0.00,,,0.00,Wunderground v.1.15,2013-03-04 01:15:00,
2013-03-03 19:21:00,32.4,23.7,30.10,ESE,116,2.0,3.0,70,0.00,,,0.00,Wunderground v.1.15,2013-03-04 01:21:00,
2013-03-03 19:27:00,32.4,23.7,30.10,ESE,116,2.0,3.0,70,0.00,,,0.00,Wunderground v.1.15,2013-03-04 01:27:00,
2013-03-03 19:33:00,32.4,23.7,30.10,ESE,119,2.0,4.0,70,0.00,,,0.00,Wunderground v.1.15,2013-03-04 01:33:00,
2013-03-03 19:39:00,32.3,23.6,30.10,ESE,115,2.0,4.0,70,0.00,,,0.00,Wunderground v.1.15,2013-03-04 01:39:00,
2013-03-03 19:45:00,32.3,23.9,30.10,ESE,117,3.0,3.0,71,0.00,,,0.00,Wunderground v.1.15,2013-03-04 01:45:00,
2013-03-03 19:51:00,32.2,24.2,30.10,ESE,116,3.0,3.0,72,0.00,,,0.00,Wunderground v.1.15,2013-03-04 01:51:00,
2013-03-03 19:57:00,32.2,24.5,30.10,ESE,114,3.0,4.0,73,0.00,,,0.00,Wunderground v.1.15,2013-03-04 01:57:00,
2013-03-03 20:03:00,32.2,25.2,30.10,ESE,116,3.0,4.0,75,0.00,,,0.00,Wunderground v.1.15,2013-03-04 02:03:00,
2013-03-03 20:09:00,32.1,25.4,30.09,ESE,113,3.0,6.0,76,0.00,,,0.00,Wunderground v.1.15,2013-03-04 02:09:00,
2013-03-03 20:15:00,32.2,25.8,30.09,ESE,116,4.0,5.0,77,0.00,,,0.00,Wunderground v.1.15,2013-03-04 02:15:00,
2013-03-03 20:20:00,32.2,25.8,30.09,ESE,114,4.0,5.0,77,0.00,,,0.00,Wunderground v.1.15,2013-03-04 02:20:00,
2013-03-03 20:26:00,32.1,25.7,30.09,ESE,112,4.0,7.0,77,0.00,,,0.00,Wunderground v.1.15,2013-03-04 02:26:00,
2013-03-03 20:32:00,32.1,26.0,30.09,ESE,107,5.0,7.0,78,0.00,,,0.00,Wunderground v.1.15,2013-03-04 02:32:00,
2013-03-03 20:38:00,32.1,26.0,30.09,East,101,5.0,8.0,78,0.00,,,0.00,Wunderground v.1.15,2013-03-04 02:38:00,
2013-03-03 20:44:00,32.1,25.7,30.09,ESE,114,5.0,6.0,77,0.00,,,0.00,Wunderground v.1.15,2013-03-04 02:44:00,
2013-03-03 20:50:00,32.1,25.7,30.09,ESE,110,4.0,6.0,77,0.00,,,0.00,Wunderground v.1.15,2013-03-04 02:50:00,
2013-03-03 20:56:00,32.1,25.7,30.09,East,100,4.0,8.0,77,0.00,,,0.00,Wunderground v.1.15,2013-03-04 02:56:00,
2013-03-03 21:02:00,32.0,25.6,30.09,East,98,5.0,5.0,77,0.00,,,0.00,Wunderground v.1.15,2013-03-04 03:02:00,
2013-03-03 21:08:00,32.0,25.6,30.09,East,94,4.0,7.0,77,0.00,,,0.00,Wunderground v.1.15,2013-03-04 03:08:00,
2013-03-03 21:14:00,32.1,26.0,30.09,SE,141,5.0,6.0,78,0.00,,,0.00,Wunderground v.1.15,2013-03-04 03:14:00,
2013-03-03 21:20:00,32.1,26.0,30.09,East,98,5.0,6.0,78,0.00,,,0.00,Wunderground v.1.15,2013-03-04 03:20:00,
2013-03-03 21:26:00,32.1,26.0,30.09,East,90,5.0,6.0,78,0.00,,,0.00,Wunderground v.1.15,2013-03-04 03:26:00,
2013-03-03 21:31:00,32.1,26.0,30.09,East,98,4.0,5.0,78,0.00,,,0.00,Wunderground v.1.15,2013-03-04 03:31:00,
2013-03-03 21:37:00,32.2,26.4,30.09,East,94,5.0,6.0,79,0.00,,,0.00,Wunderground v.1.15,2013-03-04 03:37:00,
2013-03-03 21:42:00,32.2,26.4,30.09,East,93,5.0,8.0,79,0.00,,,0.00,Wunderground v.1.15,2013-03-04 03:42:00,
2013-03-03 21:48:00,32.3,26.5,30.09,East,90,5.0,9.0,79,0.00,,,0.00,Wunderground v.1.15,2013-03-04 03:48:00,
2013-03-03 21:54:00,32.4,26.3,30.09,East,87,5.0,7.0,78,0.00,,,0.00,Wunderground v.1.15,2013-03-04 03:54:00,
2013-03-03 22:00:00,32.4,26.6,30.09,East,91,5.0,7.0,79,0.00,,,0.00,Wunderground v.1.15,2013-03-04 04:00:00,
2013-03-03 22:06:00,32.5,26.7,30.09,East,90,7.0,10.0,79,0.00,,,0.00,Wunderground v.1.15,2013-03-04 04:06:00,
2013-03-03 22:12:00,32.4,26.6,30.08,East,94,6.0,9.0,79,0.00,,,0.00,Wunderground v.1.15,2013-03-04 04:12:00,
2013-03-03 22:17:00,32.5,26.4,30.08,East,84,5.0,9.0,78,0.00,,,0.00,Wunderground v.1.15,2013-03-04 04:17:00,
2013-03-03 22:23:00,32.5,26.4,30.08,ESE,102,5.0,8.0,78,0.00,,,0.00,Wunderground v.1.15,2013-03-04 04:23:00,
2013-03-03 22:29:00,32.6,26.5,30.08,East,86,5.0,8.0,78,0.00,,,0.00,Wunderground v.1.15,2013-03-04 04:29:00,
2013-03-03 22:35:00,32.6,26.5,30.08,ESE,102,5.0,5.0,78,0.00,,,0.00,Wunderground v.1.15,2013-03-04 04:35:00,
2013-03-03 22:41:00,32.6,26.5,30.08,East,90,4.0,6.0,78,0.00,,,0.00,Wunderground v.1.15,2013-03-04 04:41:00,
2013-03-03 22:47:00,32.6,26.5,30.09,East,99,5.0,6.0,78,0.00,,,0.00,Wunderground v.1.15,2013-03-04 04:47:00,
2013-03-03 22:53:00,32.7,26.3,30.09,East,101,4.0,6.0,77,0.00,,,0.00,Wunderground v.1.15,2013-03-04 04:53:00,
2013-03-03 22:59:00,32.7,26.3,30.09,ESE,113,4.0,6.0,77,0.00,,,0.00,Wunderground v.1.15,2013-03-04 04:59:00,
2013-03-03 23:00:00,32.8,26.4,30.09,ESE,108,4.0,4.0,77,0.00,,,0.00,Wunderground v.1.15,2013-03-04 05:00:00,
2013-03-03 23:03:00,32.8,26.1,30.09,ESE,112,4.0,6.0,76,0.00,,,0.00,Wunderground v.1.15,2013-03-04 05:03:00,
2013-03-03 23:08:00,32.8,26.1,30.09,ESE,108,5.0,6.0,76,0.00,,,0.00,Wunderground v.1.15,2013-03-04 05:08:00,
2013-03-03 23:13:00,32.8,25.7,30.09,ESE,105,4.0,6.0,75,0.00,,,0.00,Wunderground v.1.15,2013-03-04 05:13:00,
2013-03-03 23:17:00,32.9,25.8,30.09,ESE,106,4.0,6.0,75,0.00,,,0.00,Wunderground v.1.15,2013-03-04 05:17:00,
2013-03-03 23:22:00,32.9,25.5,30.09,ESE,108,5.0,5.0,74,0.00,,,0.00,Wunderground v.1.15,2013-03-04 05:22:00,
2013-03-03 23:28:00,33.0,25.3,30.09,ESE,108,5.0,5.0,73,0.00,,,0.00,Wunderground v.1.15,2013-03-04 05:28:00,
2013-03-03 23:34:00,33.0,25.3,30.09,SE,141,4.0,6.0,73,0.00,,,0.00,Wunderground v.1.15,2013-03-04 05:34:00,
2013-03-03 23:39:00,33.0,25.3,30.08,SE,141,4.0,6.0,73,0.00,,,0.00,Wunderground v.1.15,2013-03-04 05:39:00,
2013-03-03 23:45:00,33.1,25.4,30.09,ESE,105,4.0,6.0,73,0.00,,,0.00,Wunderground v.1.15,2013-03-04 05:45:00,
2013-03-03 23:51:00,33.1,25.4,30.08,ESE,119,5.0,6.0,73,0.00,,,0.00,Wunderground v.1.15,2013-03-04 05:51:00,
2013-03-03 23:57:00,33.1,25.4,30.08,ESE,110,4.0,6.0,73,0.00,,,0.00,Wunderground v.1.15,2013-03-04 05:57:00,